This demonstration page uses our WeatherBlox Daily Observations layout. Learn more.

Left ArrowRight Arrow

Hourly Observations for August 23, 2020

Temp ( °F °C ) Dew Point ( °F °C ) Humidity (%) Winds ( mph kmh ) Pressure ( in mb ) Visibility ( mi km ) Precip ( " mm )
12:53 am 00:53 Clear 74 23.3 64 17.8 71 71 SSW 5 7 29.89 1012 10 16 0.00 0.00
1:53 am 01:53 Clear 73 22.8 63 17.2 71 71 SSW 6 9 29.89 1012 10 16 0.00 0.00
2:53 am 02:53 Clear 72 22.2 63 17.2 73 73 SSW 6 9 29.89 1012 10 16 0.00 0.00
3:53 am 03:53 Clear 72 22.2 63 17.2 73 73 SSW 5 7 29.90 1012 10 16 0.00 0.00
4:53 am 04:53 Clear 70 21.1 62 16.7 76 76 S 3 6 29.90 1013 10 16 0.00 0.00
5:53 am 05:53 Clear 69 20.6 62 16.7 78 78 S 6 9 29.91 1013 10 16 0.00 0.00
6:53 am 06:53 Sunny 69 20.6 62 16.7 78 78 S 5 7 29.92 1013 10 16 0.00 0.00
7:53 am 07:53 Sunny 69 20.6 62 16.7 78 78 S 6 9 29.94 1014 10 16 0.00 0.00
8:53 am 08:53 Sunny 73 22.8 62 16.7 69 69 SSW 7 11 29.95 1014 10 16 0.00 0.00
9:53 am 09:53 Sunny 77 25 64 17.8 64 64 SSW 8 13 29.95 1014 10 16 0.00 0.00
10:53 am 10:53 Sunny 81 27.2 65 18.3 58 58 WSW 9 15 29.96 1015 10 16 0.00 0.00
11:53 am 11:53 Sunny 84 28.9 67 19.4 57 57 WSW 6 9 29.96 1014 10 16 0.00 0.00
12:53 pm 12:53 Sunny 88 31.1 68 20 52 52 SSW 5 7 29.94 1014 10 16 0.00 0.00
2:53 pm 14:53 Sunny 92 33.3 67 19.4 44 44 S 9 15 29.93 1013 10 16 0.00 0.00
3:53 pm 15:53 Sunny 94 34.4 67 19.4 41 41 SSW 7 11 29.92 1013 10 16 0.00 0.00
4:53 pm 16:53 Mostly Sunny 95 35 66 18.9 39 39 SSW 10 17 29.91 1013 10 16 0.00 0.00
5:53 pm 17:53 Mostly Sunny 94 34.4 67 19.4 41 41 S 9 15 29.91 1013 10 16 0.00 0.00
6:53 pm 18:53 Sunny 92 33.3 68 20 46 46 S 9 15 29.90 1013 10 16 0.00 0.00
7:53 pm 19:53 Sunny 88 31.1 69 20.6 54 54 S 7 11 29.91 1013 10 16 0.00 0.00
8:53 pm 20:53 Clear 85 29.4 68 20 57 57 SSE 7 11 29.91 1013 10 16 0.00 0.00
9:53 pm 21:53 Clear 83 28.3 67 19.4 59 59 SSE 8 13 29.94 1014 10 16 0.00 0.00
10:53 pm 22:53 Clear 79 26.1 65 18.3 62 62 undefined N/A 29.95 1014 10 16 0.00 0.00
11:53 pm 23:53 Clear 76 24.4 63 17.2 64 64 S 6 9 29.96 1015 10 16 0.00 0.00

Powered by AerisWeather